• In Austria
  • List of Countries
  • For 7 days
  • Water Temperature
  • Satellite Maps
  • Weather Map
  • News
  • Weather Widgets
  • user-avatar
    Login

    Hourly Weather Chechuzhyne

    Today, 22 June, Friday

    Time Temperature Precipitation Wind Pressure Humidity
    00:00 +22°C° 0 mm 1 mps 752 mmHg 63%
    01:00 +20°C° 0 mm 2 mps 752 mmHg 64%
    02:00 +20°C° 0 mm 2 mps 752 mmHg 66%
    03:00 +20°C° 0 mm 2 mps 752 mmHg 68%
    04:00 +20°C° 0 mm 2 mps 752 mmHg 71%
    05:00 +20°C° 0 mm 2 mps 752 mmHg 73%
    06:00 +22°C° 0 mm 3 mps 752 mmHg 68%
    07:00 +25°C° 0 mm 3 mps 751 mmHg 64%
    08:00 +27°C° 0 mm 3 mps 751 mmHg 59%
    09:00 +28°C° 0 mm 3 mps 751 mmHg 54%
    10:00 +29°C° 0 mm 3 mps 751 mmHg 48%
    11:00 +31°C° 0 mm 3 mps 751 mmHg 43%
    12:00 +31°C° 0 mm 3 mps 750 mmHg 41%
    13:00 +33°C° 0 mm 3 mps 750 mmHg 39%
    14:00 +34°C° 0 mm 2 mps 749 mmHg 38%
    15:00 +32°C° 0 mm 2 mps 749 mmHg 40%
    16:00 +32°C° 0 mm 2 mps 749 mmHg 42%
    17:00 +32°C° 0 mm 2 mps 749 mmHg 45%
    18:00 +30°C° 0 mm 2 mps 749 mmHg 48%
    19:00 +29°C° 0 mm 2 mps 749 mmHg 51%
    20:00 +27°C° 0 mm 2 mps 749 mmHg 55%
    21:00 +27°C° 0.1 mm 2 mps 749 mmHg 56%
    22:00 +26°C° 0.1 mm 2 mps 748 mmHg 58%
    23:00 +26°C° 0.1 mm 2 mps 748 mmHg 59%

    Tomorrow, 23 June, Saturday

    Time Temperature Precipitation Wind Pressure Humidity
    00:00 +25°C° 0.5 mm 2 mps 748 mmHg 63%
    01:00 +24°C° 0.5 mm 3 mps 748 mmHg 67%
    02:00 +22°C° 0.5 mm 3 mps 748 mmHg 72%
    03:00 +22°C° 1.2 mm 3 mps 748 mmHg 78%
    04:00 +21°C° 1.2 mm 2 mps 748 mmHg 84%
    05:00 +21°C° 1.2 mm 2 mps 748 mmHg 90%
    06:00 +23°C° 0.4 mm 2 mps 748 mmHg 86%
    07:00 +24°C° 0.4 mm 2 mps 747 mmHg 82%
    08:00 +25°C° 0.4 mm 2 mps 747 mmHg 78%
    09:00 +25°C° 1.3 mm 3 mps 747 mmHg 77%
    10:00 +25°C° 1.3 mm 3 mps 747 mmHg 76%
    11:00 +25°C° 1.3 mm 4 mps 747 mmHg 74%
    12:00 +26°C° 1.2 mm 3 mps 747 mmHg 71%
    13:00 +26°C° 1.2 mm 3 mps 747 mmHg 68%
    14:00 +27°C° 1.2 mm 3 mps 746 mmHg 64%
    15:00 +26°C° 1.2 mm 3 mps 746 mmHg 69%
    16:00 +25°C° 1.2 mm 2 mps 746 mmHg 74%
    17:00 +24°C° 1.2 mm 2 mps 746 mmHg 80%
    18:00 +22°C° 0.3 mm 3 mps 747 mmHg 83%
    19:00 +21°C° 0.3 mm 3 mps 747 mmHg 86%
    20:00 +19°C° 0.3 mm 4 mps 747 mmHg 89%
    21:00 +17°C° 0.3 mm 5 mps 747 mmHg 90%
    22:00 +16°C° 0.3 mm 6 mps 748 mmHg 90%
    23:00 +14°C° 0.3 mm 6 mps 748 mmHg 90%

    Day after tomorrow, 24 June, Sunday

    Time Temperature Precipitation Wind Pressure Humidity
    00:00 +14°C° 0 mm 6 mps 749 mmHg 89%
    01:00 +13°C° 0 mm 6 mps 749 mmHg 88%
    02:00 +11°C° 0 mm 6 mps 750 mmHg 87%
    03:00 +12°C° 0 mm 5 mps 750 mmHg 87%
    04:00 +12°C° 0 mm 5 mps 751 mmHg 87%
    05:00 +12°C° 0 mm 4 mps 751 mmHg 86%
    06:00 +13°C° 0 mm 4 mps 752 mmHg 80%
    07:00 +14°C° 0 mm 4 mps 752 mmHg 74%
    08:00 +17°C° 0 mm 4 mps 752 mmHg 68%
    09:00 +18°C° 0 mm 4 mps 753 mmHg 64%
    10:00 +20°C° 0 mm 4 mps 753 mmHg 59%
    11:00 +21°C° 0 mm 4 mps 753 mmHg 55%
    12:00 +22°C° 0 mm 4 mps 753 mmHg 53%
    13:00 +22°C° 0 mm 4 mps 753 mmHg 51%
    14:00 +23°C° 0 mm 4 mps 753 mmHg 49%
    15:00 +23°C° 0 mm 4 mps 753 mmHg 51%
    16:00 +24°C° 0 mm 3 mps 753 mmHg 52%
    17:00 +22°C° 0 mm 3 mps 754 mmHg 53%
    18:00 +21°C° 0 mm 3 mps 754 mmHg 58%
    19:00 +19°C° 0 mm 2 mps 754 mmHg 63%
    20:00 +18°C° 0 mm 2 mps 754 mmHg 67%
    21:00 +18°C° 0 mm 1 mps 755 mmHg 70%
    22:00 +16°C° 0 mm 1 mps 755 mmHg 72%
    23:00 +16°C° 0 mm 1 mps 755 mmHg 74%

    25 June, Monday

    Time Temperature Precipitation Wind Pressure Humidity
    00:00 +15°C° 0 mm 1 mps 755 mmHg 77%
    01:00 +15°C° 0 mm 1 mps 756 mmHg 79%
    02:00 +14°C° 0 mm 1 mps 756 mmHg 82%
    03:00 +15°C° 0 mm 1 mps 756 mmHg 82%
    04:00 +15°C° 0 mm 1 mps 756 mmHg 82%
    05:00 +15°C° 0 mm 1 mps 756 mmHg 83%
    06:00 +18°C° 0 mm 1 mps 756 mmHg 76%
    07:00 +20°C° 0 mm 1 mps 757 mmHg 70%
    08:00 +21°C° 0 mm 1 mps 757 mmHg 64%
    09:00 +22°C° 0 mm 1 mps 757 mmHg 59%
    10:00 +23°C° 0 mm 1 mps 757 mmHg 54%
    11:00 +25°C° 0 mm 1 mps 757 mmHg 49%
    12:00 +25°C° 0 mm 2 mps 757 mmHg 47%
    13:00 +25°C° 0 mm 2 mps 757 mmHg 45%
    14:00 +26°C° 0 mm 2 mps 757 mmHg 44%
    15:00 +26°C° 0 mm 2 mps 757 mmHg 45%
    16:00 +26°C° 0 mm 2 mps 757 mmHg 46%
    17:00 +26°C° 0 mm 2 mps 757 mmHg 47%
    18:00 +24°C° 0 mm 2 mps 757 mmHg 52%
    19:00 +21°C° 0 mm 2 mps 757 mmHg 58%
    20:00 +19°C° 0 mm 2 mps 757 mmHg 63%
    21:00 +19°C° 0 mm 2 mps 757 mmHg 65%
    22:00 +18°C° 0 mm 2 mps 757 mmHg 67%
    23:00 +17°C° 0 mm 2 mps 757 mmHg 70%

    26 June, Tuesday

    Time Temperature Precipitation Wind Pressure Humidity
    00:00 +17°C° 0 mm 2 mps 757 mmHg 71%
    01:00 +16°C° 0 mm 2 mps 757 mmHg 73%
    02:00 +16°C° 0 mm 2 mps 757 mmHg 75%
    03:00 +16°C° 0 mm 2 mps 757 mmHg 77%
    04:00 +16°C° 0 mm 2 mps 757 mmHg 78%
    05:00 +16°C° 0 mm 2 mps 757 mmHg 79%
    06:00 +18°C° 0 mm 3 mps 757 mmHg 73%
    07:00 +20°C° 0 mm 3 mps 757 mmHg 68%
    08:00 +22°C° 0 mm 3 mps 757 mmHg 62%
    09:00 +24°C° 0 mm 3 mps 757 mmHg 57%
    10:00 +25°C° 0 mm 3 mps 757 mmHg 52%
    11:00 +27°C° 0 mm 4 mps 756 mmHg 47%
    12:00 +27°C° 0 mm 4 mps 756 mmHg 47%
    13:00 +27°C° 0 mm 4 mps 755 mmHg 46%
    14:00 +28°C° 0 mm 4 mps 755 mmHg 46%
    15:00 +27°C° 0 mm 4 mps 755 mmHg 48%
    16:00 +27°C° 0 mm 4 mps 755 mmHg 51%
    17:00 +27°C° 0 mm 5 mps 755 mmHg 53%
    18:00 +25°C° 0 mm 4 mps 755 mmHg 59%
    19:00 +23°C° 0 mm 4 mps 754 mmHg 65%
    20:00 +21°C° 0 mm 4 mps 754 mmHg 72%
    21:00 +20°C° 0 mm 4 mps 754 mmHg 73%
    22:00 +20°C° 0 mm 4 mps 754 mmHg 75%
    23:00 +19°C° 0 mm 4 mps 754 mmHg 77%

    27 June, Wednesday

    Time Temperature Precipitation Wind Pressure Humidity
    00:00 +19°C° 0 mm 4 mps 753 mmHg 78%
    01:00 +18°C° 0 mm 4 mps 753 mmHg 80%
    02:00 +18°C° 0 mm 4 mps 753 mmHg 81%
    03:00 +18°C° 0.2 mm 4 mps 753 mmHg 81%
    04:00 +17°C° 0.2 mm 5 mps 753 mmHg 81%
    05:00 +17°C° 0.2 mm 5 mps 752 mmHg 81%
    06:00 +19°C° 1 mm 6 mps 752 mmHg 82%
    07:00 +20°C° 1 mm 6 mps 752 mmHg 82%
    08:00 +20°C° 1 mm 6 mps 751 mmHg 83%
    09:00 +21°C° 1.7 mm 7 mps 751 mmHg 82%
    10:00 +22°C° 1.7 mm 7 mps 751 mmHg 80%
    11:00 +23°C° 1.7 mm 7 mps 750 mmHg 79%
    12:00 +24°C° 0.4 mm 7 mps 750 mmHg 77%
    13:00 +26°C° 0.4 mm 7 mps 749 mmHg 75%
    14:00 +26°C° 0.4 mm 7 mps 749 mmHg 73%
    15:00 +26°C° 1.5 mm 7 mps 748 mmHg 75%
    16:00 +26°C° 1.5 mm 7 mps 748 mmHg 77%
    17:00 +26°C° 1.5 mm 8 mps 747 mmHg 79%
    18:00 +24°C° 0.5 mm 7 mps 747 mmHg 83%
    19:00 +24°C° 0.5 mm 7 mps 746 mmHg 86%
    20:00 +23°C° 0.5 mm 6 mps 746 mmHg 89%
    21:00 +23°C° 0.2 mm 5 mps 746 mmHg 89%
    22:00 +22°C° 0.2 mm 4 mps 746 mmHg 89%
    23:00 +22°C° 0.2 mm 3 mps 746 mmHg 88%
    Show more